Flag for U.S.A. Weather past 2 weeks in St. Augustine, Florida, U.S.A.

Now
77 °F

Clear.


Feels Like: 78 °F
Forecast: 75 / 84 °F
Wind: 9 mph from Southeast

Location: St. Augustine Airport

Current Time: May 26, 2015 at 1:58:52 AM

Latest Report: May 26, 2015 at 12:58 AM


Visibility: 10 mi

Pressure: 30.21 "Hg

Humidity: 88%

Dew point: 73 °F

Location of St. AugustineLocation

Historic Weather in St. Augustine — Graph

°F

St. Augustine temperature yesterday

Maximum temperature yesterday: 84 °F (at 12:58 PM)
Minimum temperature yesterday: 75 °F (at 2:58 AM)
Average temperature yesterday: 79 °F

Past Weeks' High & Low Weather Summary

 TemperatureHumidityPressure
High93 °F (May 21, 4:58 PM)100% (May 14, 6:02 AM)30.31 "Hg (May 14, 6:02 AM)
Low69 °F (May 18, 4:58 AM)41% (May 21, 5:58 PM)29.89 "Hg (May 21, 5:58 PM)
Average78 °F79%30.15 "Hg
* Reported May 10 11:58 PM — May 25 11:58 PM, St. Augustine, Weather by CustomWeather, © 2015

Note: Actual official high and low records may vary slightly from our data, if they occured in-between our weather recording intervals... More about our weather records

Advertising

St. Augustine weather history for previous 24 hours

 ConditionsComfort  
Time TempWeatherWind HumidityBarometerVisibility
11:58 PM
Mon, May 25
77 °FPassing clouds.8 mph90%30.22 "Hg10 mi
10:58 PM78 °FPassing clouds.8 mph87%30.23 "Hg10 mi
9:58 PM78 °FPassing clouds.10 mph87%30.21 "Hg10 mi
8:58 PM79 °FPassing clouds.13 mph84%30.19 "Hg10 mi
7:58 PM79 °FPassing clouds.12 mph84%30.19 "Hg10 mi
6:58 PM81 °FSunny.13 mph82%30.19 "Hg10 mi
5:58 PM82 °FSunny.18 mph79%30.19 "Hg10 mi
4:58 PM83 °FPassing clouds.15 mph79%30.20 "Hg10 mi
3:58 PM84 °FSunny.15 mph77%30.21 "Hg10 mi
2:58 PM84 °FSunny.15 mph74%30.22 "Hg10 mi
1:58 PM83 °FSunny.15 mph77%30.23 "Hg10 mi
12:58 PM84 °FSunny.14 mph74%30.24 "Hg10 mi
11:58 AM83 °FPartly sunny.14 mph77%30.25 "Hg10 mi
10:58 AM81 °FPartly sunny.14 mph79%30.25 "Hg10 mi
9:58 AM81 °FScattered clouds.14 mph79%30.25 "Hg10 mi
8:58 AM80 °FPartly sunny.12 mph85%30.24 "Hg7 mi
7:58 AM79 °FSunny.9 mph88%30.22 "Hg10 mi
7:04 AM75 °FPartly cloudy.6 mph94%30.22 "Hg9 mi
6:58 AM76 °FPassing clouds.6 mph94%30.21 "Hg8 mi
5:58 AM75 °FPassing clouds.6 mph94%30.20 "Hg10 mi
4:58 AM75 °FOvercast.No wind96%30.19 "Hg10 mi
3:57 AM75 °FRain. Fog.9 mph94%30.20 "Hg3 mi
2:58 AM75 °FPassing clouds.5 mph90%30.20 "Hg10 mi
1:58 AM76 °FClear.No wind88%30.21 "Hg10 mi
Weather by CustomWeather, © 2015

See weather overviewHow to use our weather pages